This demonstration page uses our WeatherBlox Daily Observations layout. Learn more.

Left ArrowRight Arrow

Hourly Observations for September 1, 2021

Temp ( °F °C ) Dew Point ( °F °C ) Humidity (%) Winds ( mph kmh ) Pressure ( in mb ) Visibility ( mi km ) Precip ( " mm )
12:59 am 00:59 Cloudy 81 27.2 73 22.8 77 77 SSW 7 11 29.80 1009 8 13 0.00 0.00
1:59 am 01:59 Mostly Cloudy 79 26.1 72 22.2 79 79 SSW 9 15 29.80 1009 8 13 0.00 0.00
2:59 am 02:59 Mostly Cloudy 78 25.6 71 21.7 79 79 SSW 9 15 29.80 1009 8 13 0.00 0.00
3:59 am 03:59 Mostly Cloudy 77 25 71 21.7 82 82 SSW 6 9 29.79 1009 8 13 0.00 0.00
4:59 am 04:59 Mostly Cloudy 77 25 72 22.2 85 85 S 8 13 29.78 1008 8 13 0.00 0.00
5:59 am 05:59 Partly Cloudy 77 25 73 22.8 88 88 S 8 13 29.77 1008 8 13 0.00 0.00
6:59 am 06:59 Partly Cloudy with Mist and Fog 77 25 73 22.8 88 88 SSW 7 11 29.78 1008 6 10 0.00 0.00
7:21 am 07:21 Mostly Cloudy 77 25 73 22.8 88 88 SSW 8 13 29.78 1008 8 13 0.00 0.00
7:59 am 07:59 Mostly Cloudy 79 26.1 74 23.3 85 85 SSW 7 11 29.77 1008 8 13 0.00 0.00
8:59 am 08:59 Mostly Cloudy 80 26.7 73 22.8 79 79 S 13 20 29.76 1008 10 16 0.00 0.00
9:59 am 09:59 Mostly Cloudy 83 28.3 73 22.8 72 72 S 17 28 29.75 1007 8 13 0.00 0.00
10:23 am 10:23 Mostly Cloudy 85 29.4 74 23.3 70 70 S 14 22 29.74 1007 8 13 0.00 0.00
10:59 am 10:59 Mostly Cloudy 86 30 73 22.8 65 65 S 13 20 29.72 1006 10 16 0.00 0.00
11:35 am 11:35 Mostly Cloudy 86 30 72 22.2 63 63 S 16 26 29.70 1006 10 16 0.00 0.00
11:59 am 11:59 Mostly Cloudy 89 31.7 74 23.3 61 61 S 14 22 29.70 1006 10 16 0.00 0.00
12:59 pm 12:59 Mostly Cloudy with Light Rain 83 28.3 74 23.3 74 74 S 9 15 29.67 1005 3 4 0.03 0.76
1:12 pm 13:12 Mostly Cloudy with Light Rain 83 28.3 76 24.4 79 79 S 15 24 29.67 1005 5 8 0.04 1.02
1:33 pm 13:33 Mostly Cloudy 86 30 77 25 75 75 S 12 19 29.65 1004 9 14 0.04 1.02
1:59 pm 13:59 Mostly Cloudy 88 31.1 73 22.8 61 61 S 13 20 29.64 1004 9 14 0.04 1.02
2:59 pm 14:59 Partly Cloudy 89 31.7 72 22.2 57 57 S 18 30 29.62 1003 9 14 0.00 0.00
3:59 pm 15:59 Mostly Cloudy 90 32.2 73 22.8 58 58 S 14 22 29.60 1002 9 14 0.00 0.00
4:59 pm 16:59 Partly Cloudy 87 30.6 71 21.7 59 59 S 21 33 29.58 1002 9 14 0.00 0.00
5:59 pm 17:59 Cloudy with Haze 85 29.4 73 22.8 68 68 SSW 17 28 29.59 1002 6 10 0.00 0.00
6:59 pm 18:59 Mostly Cloudy 84 28.9 72 22.2 67 67 S 16 26 29.59 1002 9 14 0.01 0.25
7:37 pm 19:37 Mostly Cloudy with Thunderstorms 83 28.3 71 21.7 67 67 SSW 18 30 29.59 1002 10 16 0.00 0.00
7:59 pm 19:59 Mostly Cloudy with Thunderstorms 82 27.8 72 22.2 72 72 SSW 14 22 29.60 1002 10 16 0.00 0.00
8:25 pm 20:25 Partly Cloudy 81 27.2 73 22.8 77 77 SSW 13 20 29.61 1003 10 16 0.00 0.00
8:59 pm 20:59 Mostly Cloudy 81 27.2 73 22.8 77 77 SSW 10 17 29.62 1003 10 16 0.00 0.00
9:59 pm 21:59 Cloudy with Light Rain 78 25.6 74 23.3 87 87 SSW 12 19 29.63 1003 5 8 0.05 1.27
10:59 pm 22:59 Cloudy with Light Rain 78 25.6 74 23.3 87 87 SW 9 15 29.64 1004 8 13 0.01 0.25
11:06 pm 23:06 Cloudy with Rain 77 25 74 23.3 90 90 SW 12 19 29.64 1004 3 5 0.02 0.51
11:25 pm 23:25 Cloudy with Light Rain 72 22.2 68 20 87 87 WNW 16 26 29.67 1005 4 6 0.06 1.52
11:59 pm 23:59 Cloudy 71 21.7 66 18.9 84 84 WNW 18 30 29.67 1005 10 16 0.07 1.78

Powered by AerisWeather